sat.trackr.live / text

‹ back to catalog

STARLINK-31415

NORAD 59419 · 2024-064X

PAYLOAD ACTIVE UNKNOWN

§ Identity

Operator
Country
US
Launch date
2024-04-05
Launch site
AFETR
Launch vehicle
Mass (kg)
RCS (m²)

Purposes: comms

External: N2YO · Heavens-Above · Gunter

§ Orbital elements

Epoch: 2026-05-24T22:43:50.394720Z

Period
94.27 min
Inclination
43.0058°
Eccentricity
0.0002575
Mean motion
15.27569895 rev/d
Perigee alt
481.3 km
Apogee alt
484.8 km
Semi-major
6,861.2 km
B*
7.5469e-5
RAAN
345.9213°
Arg perigee
274.8993°
Mean anomaly
85.1564°
Rev number
12,088

§ Raw data

STARLINK-314151 59419U 24064X   26144.94711105  .00001814  00000+0  75469-4 0  99972 59419  43.0058 345.9213 0002575 274.8993  85.1564 15.27569895120883

JSON: /api/v1/satellites/59419 · /tle

For live sub-satellite position, see the globe view (requires WebGL).

§ Visibility from observer

Set your observer location to see the next 7 days of passes ≥ 10°. The values pass through the URL so the page stays shareable.

No JS? Fill the form by hand. The geolocation button needs JavaScript.